Hourly Data Report for September 16, 2017

All times are specified in Local Standard Time (LST). Add 1 hour to adjust for Daylight Saving Time where and when it is observed.

HALL BEACH A
NUNAVUT

68°46'33.000" N
81°14'33.000" W
9.10 m
2402354
71293
YUX

Download Data

Hourly Data (September 2017)
Hourly Data Report for September 16, 2017
Temp Definition
°C
Dew Point Temp Definition
°C
Rel Hum Definition
%
Wind Dir Definition
10's deg

Wind Spd Definition
km/h
Visibility Definition
km
Stn Press Definition
kPa
Hmdx Definition


Wind Chill Definition


Weather Definition


TIME
00:00 Legend Double Dagger 0.5 -0.5 93 30 17 16.1 101.05     LegendNANA
01:00 Legend Double Dagger 0.6 -0.6 92 35 17 16.1 101.03     LegendNANA
02:00 Legend Double Dagger 0.6 -0.6 92 32 13 16.1 101.07     LegendNANA
03:00 Legend Double Dagger 0.3 -0.7 93 30 13 16.1 101.11     LegendNANA
04:00 Legend Double Dagger 0.6 -0.9 90 30 17 16.1 101.13     LegendNANA
05:00 Legend Double Dagger 0.4 -0.9 91 31 15 16.1 101.14     LegendNANA
06:00 Legend Double Dagger 0.4 -0.9 91 31 17 16.1 101.16     LegendNANA
07:00 Legend Double Dagger 0.3 -0.9 92 31 21 16.1 101.19     LegendNANA
08:00 Legend Double Dagger 0.6 -0.8 91 30 18 16.1 101.23     LegendNANA
09:00 Legend Double Dagger 1.1 -1.0 86 31 21 16.1 101.25     LegendNANA
10:00 Legend Double Dagger 1.4 -1.0 84 32 18 16.1 101.25     LegendNANA
11:00 Legend Double Dagger 2.1 -1.3 78 31 22 16.1 101.26     LegendNANA
12:00 Legend Double Dagger 2.1 0.2 87 32 18 16.1 101.25     LegendNANA
13:00 Legend Double Dagger 3.6 -0.4 75 32 28 16.1 101.24     LegendNANA
14:00 Legend Double Dagger 3.9 0.1 76 32 22 16.1 101.30     LegendNANA
15:00 Legend Double Dagger 3.7 0.3 78 30 28 16.1 101.29     LegendNANA
16:00 Legend Double Dagger 3.4 0.1 79 30 26 16.1 101.32     LegendNANA
17:00 Legend Double Dagger 3.3 0.5 82 31 22 16.1 101.34     LegendNANA
18:00 Legend Double Dagger 3.1 0.7 84 31 24 16.1 101.35     LegendNANA
19:00 Legend Double Dagger 2.4 0.0 84 31 24 16.1 101.39     LegendNANA
20:00 Legend Double Dagger 1.8 -0.3 86 31 24 16.1 101.45     LegendNANA
21:00 Legend Double Dagger 1.1 -0.9 87 31 24 16.1 101.49     LegendNANA
22:00 Legend Double Dagger 1.1 -1.0 86 33 22 16.1 101.49     LegendNANA
23:00 Legend Double Dagger 0.8 -1.1 87 33 22 16.1 101.51     LegendNANA

Notes on Data Quality.

Legend

  • E = Estimated
  • M = Missing
  • NA = Not Available
  • ‡ = Partner data that is not subject to review by the National Climate Archives
Date modified: